www.pogodaiklimat.ru

Погода и климат >> Архив погоды >> Бразилия >> Мату-Гросу-ду-Сул >> Маракажу


ПОГОДА в Маракажу

  • Прогноз погоды в Маракажу
  • Монитор погоды в Маракажу

АРХИВ ПОГОДЫ в Маракажу

Время (UTC), дата Ветер
(напр.,м/с)
 
Видим.   Явления Облачность Т
(С)
Тd
(С)
f
(%)
Тe
(С)
Тes
(С)
Комфортность P
(гПа)
Po
(гПа)
Тmin
(С)
Tmax
(С)
R
(мм)
R24
(мм)
S
(см)
16 16.09 штиль 0
{3}
н/о н/о +39.9 +5.7 12 +37 +37 очень
жарко
1008.3 966.4
17 16.09 штиль 0
{3}
н/о н/о +40.8 +5.6 12 +38 +38 очень
жарко
1007.4 965.6
18 16.09 штиль 0
{4}
н/о н/о +39.8 +5.1 12 +37 +37 очень
жарко
1006.6 964.7
19 16.09 штиль 0
{3}
н/о н/о +39.6 +5.3 12 +37 +37 очень
жарко
1006.0 964.1
20 16.09 штиль 0
{2}
н/о н/о +38.5 +5.1 13 +36 +36 очень
жарко
1006.1 964.1
21 16.09 штиль 0 н/о н/о +34.9 +7.1 18 +33 +33 жарко 1007.2 964.7
22 16.09 штиль 0 н/о н/о +29.2 +8.5 27 +29 +29 жарко 1008.7 965.3
23 16.09 штиль 0 н/о н/о +27.6 +9.2 31 +28 +28 жарко 1009.6 965.9
00 17.09 штиль 0 н/о н/о +24.8 +12.0 45 +26 +26 жарко 1010.6 966.5
01 17.09 штиль 0
{1}
н/о н/о +26.1 +10.3 37 +27 +27 жарко 1010.7 966.8
02 17.09 штиль 0 н/о н/о +25.3 +11.3 42 +27 +27 жарко 1010.6 966.6
03 17.09 штиль 0 н/о н/о +25.9 +12.1 42 +27 +27 жарко 1010.3 966.4
04 17.09 штиль 0 н/о н/о +23.1 +12.7 52 +26 +26 жарко 1010.4 966.1
05 17.09 штиль 0 н/о н/о +21.2 +13.6 62 +24 +24 комфорт 1010.2 965.6
06 17.09 штиль 0 н/о н/о +20.6 +12.7 61 +23 +23 комфорт 1009.6 964.9
07 17.09 штиль 0 н/о н/о +19.2 +13.0 67 +20 +20 1009.4 964.5
08 17.09 штиль 0 н/о н/о +19.0 +12.7 67 +20 +20 1009.6 964.7
09 17.09 штиль 0
{4}
н/о н/о +22.5 +13.5 57 +26 +26 жарко 1009.8 965.4
10 17.09 штиль 0 н/о н/о +20.9 +13.8 64 +23 +23 комфорт 1010.7 966.0
11 17.09 штиль 0
{1}
н/о н/о +23.4 +14.3 57 +27 +27 душно 1010.9 966.6
12 17.09 штиль 0
{1}
н/о н/о +27.6 +14.8 46 +30 +30 жарко 1010.6 966.9
13 17.09 штиль 0
{2}
н/о н/о +28.1 +15.7 47 +31 +31 душно 1010.9 967.3
14 17.09 штиль 0
{1}
н/о н/о +30.9 +15.3 39 +33 +33 душно 1010.2 967.0
15 17.09 штиль 0 н/о н/о +32.5 +16.7 39 +36 +36 очень
душно
1009.2 966.2
16 17.09 штиль 0
{1}
н/о н/о +35.3 +13.1 26 +36 +36 очень
жарко
1007.6 965.1
17 17.09 штиль 0
{2}
н/о н/о +35.3 +14.3 28 +36 +36 очень
жарко
1006.4 963.9
18 17.09 СВ 1
{5}
н/о н/о +35.4 +14.2 28 +36 +36 очень
жарко
1005.3 962.9
19 17.09 СВ 1
{5}
н/о н/о +34.6 +14.6 30 +36 +36 душно 1004.9 962.4
20 17.09 штиль 0
{4}
н/о н/о +32.8 +14.9 34 +35 +35 душно 1005.3 962.6
21 17.09 штиль 0 н/о н/о +30.2 +16.0 42 +33 +33 душно 1005.8 962.7
22 17.09 штиль 0 н/о н/о +27.0 +16.7 53 +31 +31 душно 1006.6 963.0
23 17.09 штиль 0 н/о н/о +24.5 +16.7 62 +28 +28 душно 1007.3 963.3
00 18.09 штиль 0 н/о н/о +24.3 +17.1 64 +28 +28 душно 1007.4 963.4
01 18.09 штиль 0 н/о н/о +23.3 +17.1 68 +28 +28 душно 1008.0 963.8
02 18.09 штиль 0 н/о н/о +22.0 +17.1 74 +26 +26 душно 1008.1 963.7
03 18.09 штиль 0 н/о н/о +21.4 +17.0 76 +25 +25 комфорт 1008.5 964.0
04 18.09 штиль 0 н/о н/о +20.7 +17.1 80 +24 +24 комфорт 1008.5 963.9
05 18.09 штиль 0 н/о н/о +20.2 +17.0 82 +23 +23 комфорт 1007.9 963.2
06 18.09 штиль 0 н/о н/о +18.6 +16.1 85 +19 +19 1007.4 962.5
07 18.09 штиль 0 н/о н/о +17.7 +15.5 87 +18 +18 1007.2 962.2
08 18.09 штиль 0 н/о н/о +17.7 +15.9 89 +18 +18 1007.9 962.9
09 18.09 штиль 0 н/о н/о +18.6 +16.4 87 +19 +19 1009.2 964.2
10 18.09 штиль 0 н/о н/о +18.0 +15.9 88 +18 +18 1009.8 964.7
11 18.09 штиль 0
{1}
н/о н/о +19.0 +16.1 83 +20 +20 1010.7 965.7
12 18.09 штиль 0
{1}
н/о н/о +19.7 +16.3 81 +22 +22 комфорт 1010.7 965.8
13 18.09 штиль 0
{3}
н/о н/о +20.6 +16.6 78 +24 +24 комфорт 1011.5 966.7
14 18.09 штиль 0
{3}
н/о н/о +23.1 +16.6 67 +28 +28 душно 1011.4 967.0
15 18.09 штиль 0
{2}
н/о н/о +26.1 +16.8 57 +30 +30 душно 1010.0 966.1
16 18.09 штиль 0 н/о н/о +27.8 +16.5 50 +31 +31 душно 1008.8 965.2
17 18.09 штиль 0 н/о н/о +29.2 +16.3 46 +33 +33 очень
душно
1007.5 964.2
18 18.09 штиль 0 н/о н/о +30.3 +16.0 42 +33 +33 душно 1006.1 963.0
19 18.09 штиль 0 н/о н/о +30.4 +15.8 41 +33 +33 душно 1005.4 962.3
20 18.09 штиль 0 н/о н/о +29.8 +16.0 43 +33 +33 душно 1005.5 962.3
21 18.09 штиль 0 н/о н/о +29.0 +16.1 46 +32 +32 душно 1005.6 962.3
22 18.09 штиль 0 н/о н/о +27.0 +16.2 52 +30 +30 душно 1006.0 962.4
23 18.09 штиль 0 н/о н/о +26.0 +15.7 53 +29 +29 душно 1006.9 963.1
00 19.09 штиль 0 н/о н/о +24.0 +14.9 57 +27 +27 жарко 1007.5 963.4
01 19.09 штиль 0 н/о н/о +21.7 +14.7 64 +25 +25 комфорт 1007.7 963.3
02 19.09 штиль 0 н/о н/о +21.9 +14.8 64 +25 +25 комфорт 1008.0 963.6
03 19.09 штиль 0 н/о н/о +21.0 +14.8 68 +24 +24 комфорт 1008.0 963.5
04 19.09 штиль 0 н/о н/о +19.3 +14.6 74 +21 +21 комфорт 1007.7 962.9
05 19.09 штиль 0 н/о н/о +18.7 +14.6 77 +19 +19 1007.1 962.3
06 19.09 штиль 0 н/о н/о +18.9 +14.8 77 +20 +20 1006.6 961.8
07 19.09 штиль 0 н/о н/о +18.5 +14.8 79 +19 +19 1006.0 961.2
08 19.09 штиль 0 н/о н/о +19.6 +15.0 75 +21 +21 комфорт 1006.2 961.5
09 19.09 штиль 0 н/о н/о +19.8 +15.4 76 +22 +22 комфорт 1006.5 961.8
10 19.09 штиль 0
{1}
н/о н/о +20.4 +15.6 74 +23 +23 комфорт 1007.5 962.9
11 19.09 штиль 0
{1}
н/о н/о +21.0 +15.9 73 +24 +24 комфорт 1007.5 963.0
12 19.09 штиль 0
{1}
н/о н/о +22.8 +16.3 67 +27 +27 душно 1007.5 963.2
13 19.09 штиль 0
{2}
н/о н/о +25.3 +16.9 60 +29 +29 душно 1007.2 963.3
14 19.09 штиль 0
{1}
н/о н/о +29.1 +17.6 50 +33 +33 очень
душно
1005.9 962.6
15 19.09 штиль 0
{2}
н/о н/о +34.2 +16.1 34 +37 +37 очень
душно
1003.9 961.4
16 19.09 штиль 0
{4}
н/о н/о +36.8 +16.5 30 +39 +39 очень
душно
1002.6 960.5
17 19.09 В 1
{6}
н/о н/о +37.7 +15.3 27 +39 +39 очень
душно
1001.1 959.2
18 19.09 В 2
{6}
н/о н/о +36.9 +14.7 27 +38 +38 очень
душно
1000.4 958.4
19 19.09 В 1
{5}
н/о н/о +36.9 +15.2 28 +38 +38 очень
душно
1000.0 958.0
20 19.09 В 1
{7}
н/о н/о +35.9 +14.4 28 +37 +37 душно 1000.2 958.1
21 19.09 штиль 0
{7}
н/о н/о +34.1 +15.2 32 +36 +36 душно 1000.7 958.3
22 19.09 В 1
{5}
н/о н/о +32.7 +15.0 34 +34 +34 очень
жарко
1001.7 959.1
23 19.09 штиль 0
{3}
н/о н/о +31.8 +15.6 38 +34 +34 душно 1002.9 960.1
00 20.09 штиль 0 н/о н/о +29.6 +16.7 46 +33 +33 душно 1004.5 961.3
01 20.09 штиль 0 н/о н/о +27.1 +17.4 55 +31 +31 душно 1005.4 961.9
02 20.09 штиль 0 н/о н/о +26.2 +17.3 58 +30 +30 душно 1005.4 961.7
03 20.09 штиль 0 н/о н/о +25.3 +17.7 63 +30 +30 душно 1005.3 961.5
04 20.09 штиль 0 н/о н/о +25.1 +18.3 66 +30 +30 душно 1005.4 961.6
05 20.09 штиль 0 н/о н/о +25.7 +19.1 67 +31 +31 очень
душно
1004.9 961.2
06 20.09 штиль 0
{2}
н/о н/о +28.2 +18.7 56 +33 +33 очень
душно
1005.1 961.7
07 20.09 С 2
{6}
н/о н/о +24.7 +21.1 80 +31 +31 очень
душно
1007.6 963.6 1
08 20.09 штиль 0
{4}
н/о н/о +25.1 +20.5 76 +31 +31 очень
душно
1006.3 962.4 0.4
09 20.09 штиль 0 н/о н/о +24.4 +20.9 81 +31 +31 очень
душно
1007.9 963.9
10 20.09 штиль 0
{2}
н/о н/о +25.1 +18.7 68 +30 +30 душно 1007.9 964.0
11 20.09 штиль 0
{2}
н/о н/о +26.2 +20.6 71 +33 +33 очень
душно
1008.7 964.9
12 20.09 штиль 0 н/о н/о +28.2 +20.5 63 +35 +35 очень
душно
1008.9 965.4
14 20.09 штиль 0
{3}
н/о н/о +32.6 +20.0 47 +39 +39 очень
душно
1008.8 965.9
15 20.09 СВ 3
{6}
н/о н/о +34.0 +17.9 38 +38 +38 очень
душно
1008.3 965.6
16 20.09 СВ 4
{6}
н/о н/о +35.0 +17.6 36 +39 +39 очень
душно
1007.5 965.0
17 20.09 СВ 3
{7}
н/о н/о +35.4 +17.3 34 +38 +38 очень
душно
1007.0 964.5
18 20.09 СВ 3
{6}
н/о н/о +34.6 +17.4 36 +38 +38 очень
душно
1006.5 963.9
19 20.09 С 3
{6}
н/о н/о +33.5 +17.9 40 +38 +38 очень
душно
1006.4 963.7
20 20.09 С 3
{6}
н/о н/о +32.4 +17.9 42 +37 +37 очень
душно
1007.0 964.1
21 20.09 С 2
{5}
н/о н/о +30.9 +18.3 47 +36 +36 очень
душно
1007.9 964.8
22 20.09 штиль 0
{4}
н/о н/о +26.9 +18.9 62 +32 +32 очень
душно
1009.7 965.9
23 20.09 штиль 0
{4}
н/о н/о +25.2 +18.3 66 +30 +30 душно 1011.4 967.3
00 21.09 штиль 0
{3}
н/о н/о +24.4 +18.1 68 +29 +29 душно 1012.3 968.1
01 21.09 штиль 0
{2}
н/о н/о +23.6 +17.8 70 +28 +28 душно 1013.1 968.7
02 21.09 штиль 0
{2}
н/о н/о +23.3 +17.5 70 +29 +29 душно 1013.5 969.1
03 21.09 штиль 0
{2}
н/о н/о +22.5 +17.4 73 +27 +27 душно 1013.9 969.3
04 21.09 штиль 0 н/о н/о +21.7 +17.0 75 +26 +26 душно 1014.5 969.8
05 21.09 штиль 0 н/о н/о +21.4 +16.9 76 +25 +25 комфорт 1014.4 969.6
06 21.09 штиль 0
{1}
н/о н/о +21.2 +16.8 76 +25 +25 комфорт 1013.9 969.1
07 21.09 штиль 0 н/о н/о +21.2 +16.1 73 +25 +25 комфорт 1013.6 968.8
08 21.09 штиль 0 н/о н/о +20.7 +16.4 76 +24 +24 комфорт 1014.2 969.3
09 21.09 штиль 0 н/о н/о +20.3 +16.0 76 +23 +23 комфорт 1014.7 969.8
10 21.09 штиль 0
{1}
н/о н/о +20.0 +15.5 75 +22 +22 комфорт 1015.2 970.2
11 21.09 штиль 0
{3}
н/о н/о +20.7 +14.9 69 +23 +23 комфорт 1015.6 970.7
12 21.09 штиль 0
{3}
н/о н/о +22.6 +15.6 65 +27 +27 душно 1016.0 971.3
13 21.09 штиль 0 н/о н/о +25.1 +16.2 58 +28 +28 жарко 1015.7 971.4
14 21.09 штиль 0
{2}
н/о н/о +27.3 +16.4 51 +31 +31 душно 1015.1 971.2
16 21.09 штиль 0
{3}
н/о н/о +31.3 +16.0 40 +34 +34 душно 1013.5 970.2
17 21.09 штиль 0
{3}
н/о н/о +31.0 +15.6 39 +33 +33 душно 1012.7 969.4
18 21.09 штиль 0
{3}
н/о н/о +31.9 +15.6 37 +34 +34 душно 1011.7 968.6
19 21.09 штиль 0
{3}
н/о н/о +31.9 +14.5 35 +34 +34 душно 1011.2 968.1
20 21.09 штиль 0 н/о н/о +31.5 +14.5 36 +33 +33 жарко 1011.3 968.1
21 21.09 штиль 0 н/о н/о +30.4 +14.9 39 +33 +33 душно 1011.6 968.3
22 21.09 штиль 0
{1}
н/о н/о +28.5 +15.0 44 +31 +31 душно 1012.6 968.9
23 21.09 штиль 0 н/о н/о +27.0 +14.9 47 +30 +30 душно 1013.1 969.2
00 22.09 штиль 0 н/о н/о +26.0 +14.1 48 +28 +28 жарко 1013.7 969.6
01 22.09 штиль 0 н/о н/о +24.7 +13.8 51 +27 +27 жарко 1014.5 970.2
02 22.09 штиль 0
{3}
н/о н/о +24.4 +12.1 46 +26 +26 жарко 1015.2 970.8
03 22.09 штиль 0
{4}
н/о н/о +22.8 +11.1 48 +25 +25 комфорт 1016.3 971.7
04 22.09 штиль 0 н/о н/о +21.7 +9.5 46 +23 +23 комфорт 1016.1 971.3
05 22.09 штиль 0 н/о н/о +21.5 +8.5 43 +23 +23 комфорт 1016.0 971.2
06 22.09 штиль 0
{3}
н/о н/о +21.2 +8.0 43 +22 +22 комфорт 1015.8 970.9
07 22.09 штиль 0
{3}
н/о н/о +20.9 +9.8 49 +22 +22 комфорт 1016.0 971.1
08 22.09 штиль 0 н/о н/о +20.3 +11.2 56 +22 +22 комфорт 1016.4 971.4
09 22.09 штиль 0 н/о н/о +19.8 +11.2 58 +21 +21 комфорт 1017.5 972.4
10 22.09 штиль 0 н/о н/о +19.6 +13.1 66 +21 +21 комфорт 1018.7 973.5
11 22.09 штиль 0
{2}
н/о н/о +20.6 +14.5 68 +23 +23 комфорт 1019.3 974.2
12 22.09 штиль 0
{3}
н/о н/о +22.3 +16.6 70 +27 +27 душно 1019.9 975.0
13 22.09 штиль 0
{4}
н/о н/о +23.8 +17.4 67 +28 +28 душно 1019.9 975.2
14 22.09 штиль 0
{4}
н/о н/о +26.7 +18.1 59 +31 +31 душно 1019.0 974.8
15 22.09 штиль 0
{5}
н/о н/о +29.1 +16.0 45 +32 +32 душно 1018.1 974.3
16 22.09 З 1
{4}
н/о н/о +30.7 +14.7 38 +33 +33 душно 1017.4 973.8
17 22.09 З 1
{5}
н/о н/о +31.3 +13.3 33 +32 +32 жарко 1016.0 972.6
18 22.09 З 1
{5}
н/о н/о +31.8 +11.7 29 +32 +32 жарко 1015.2 971.9
19 22.09 З 1
{4}
н/о н/о +31.8 +10.2 26 +31 +31 жарко 1014.7 971.4
20 22.09 штиль 0
{4}
н/о н/о +31.4 +9.8 26 +31 +31 жарко 1015.0 971.6
21 22.09 штиль 0
{4}
н/о н/о +30.1 +8.9 27 +30 +30 жарко 1015.5 971.9
22 22.09 штиль 0
{4}
н/о н/о +28.3 +8.0 28 +28 +28 жарко 1016.2 972.4
23 22.09 штиль 0 н/о н/о +26.5 +8.9 33 +27 +27 жарко 1016.8 972.7
00 23.09 штиль 0
{3}
н/о н/о +25.5 +8.5 34 +26 +26 жарко 1017.5 973.2
01 23.09 штиль 0
{3}
н/о н/о +23.9 +8.6 38 +25 +25 комфорт 1018.4 973.8
02 23.09 штиль 0 н/о н/о +22.9 +8.6 40 +24 +24 комфорт 1018.4 973.7
03 23.09 штиль 0 н/о н/о +22.6 +8.8 41 +24 +24 комфорт 1018.0 973.3
04 23.09 штиль 0 н/о н/о +21.9 +9.6 45 +23 +23 комфорт 1018.2 973.3
05 23.09 штиль 0 н/о н/о +21.0 +10.8 52 +23 +23 комфорт 1017.9 972.9
06 23.09 штиль 0
{3}
н/о н/о +19.7 +12.2 62 +21 +21 комфорт 1017.7 972.5
07 23.09 штиль 0
{3}
н/о н/о +19.2 +13.6 70 +20 +20 1017.7 972.5
08 23.09 штиль 0
{2}
н/о н/о +18.8 +14.1 74 +20 +20 1018.4 973.1
09 23.09 штиль 0
{3}
н/о н/о +18.0 +14.0 77 +18 +18 1019.2 973.7
10 23.09 штиль 0
{3}
н/о н/о +17.6 +13.7 78 +18 +18 1020.3 974.7
11 23.09 штиль 0
{4}
н/о н/о +18.8 +13.5 71 +20 +20 1020.7 975.3
12 23.09 ЮЗ 1
{5}
н/о н/о +20.7 +13.1 62 +24 +24 комфорт 1020.6 975.5
13 23.09 ЮЗ 2
{5}
н/о н/о +21.8 +12.6 56 +24 +24 комфорт 1020.3 975.3
14 23.09 ЮЗ 2
{5}
н/о н/о +23.6 +12.5 50 +26 +26 жарко 1019.7 975.0
15 23.09 ЮЗ 2
{5}
н/о н/о +25.7 +13.0 45 +28 +28 жарко 1018.5 974.2
16 23.09 ЮЗ 1
{4}
н/о н/о +27.8 +12.4 39 +29 +29 жарко 1017.0 973.1

 

Местоположение метеостанции Маракажу (Мату-Гросу-ду-Сул, Бразилия): широта -21.62 долгота -55.18 высота над уровнем моря 403 м.

В архиве по умолчанию представлена погода в Маракажу за последнюю неделю. Архивные данные за месяц целиком и за предыдущие месяцы, начиная с января 2011 года, Вы можете получить, выбрав интересующий диапазон дат из раскрывающегося списка и нажав кнопку "Ввод!".


*Определитесь, кто Вы:
робот инопланетянин человек

Внимание! Время в таблицах - всемирное. Для получения местного времени необходимо прибавить поправку, которая равна -3 ч.

Смотрите также архив погоды в соседних городах и на ближайших метеорологических станциях:

Погода в Рио-Брилханте (Мату-Гросу-ду-Сул, Бразилия) (69 км)
Погода в Дорадусе (Мату-Гросу-ду-Сул, Бразилия) (70 км)
Погода в Сидроландии (Мату-Гросу-ду-Сул, Бразилия) (74 км)
Погода в Жардиме (Мату-Гросу-ду-Сул, Бразилия) (101 км)
Погода в Понта-Поране (Мату-Гросу-ду-Сул, Бразилия) (107 км)
Погода в Понта-Пора (Мату-Гросу-ду-Сул, Бразилия) (115 км)
Погода в Педро-Хуан-Кабальеро (Парагвай) (121 км)
Погода в Кампу-Гранди (Мату-Гросу-ду-Сул, Бразилия) (140 км)
Погода в Акидауане (Мату-Гросу-ду-Сул, Бразилия) (141 км)
Погода в Кампу-Гранди (Мату-Гросу-ду-Сул, Бразилия) (143 км)

Пояснения к столбцам:

Ветер - указаны скорость ветра в м/с - средняя за 10 мин, порывы в срок и между сроками (в фигурных скобках) и направление, откуда дует ветер: С - северный, СВ - северо-восточный, В - восточный, ЮВ - юго-восточный, Ю - южный, ЮЗ - юго-западный, З - западный, СЗ - северо-западный.
Видимость - горизонтальная дальность видимости в метрах или километрах. При видимости от 1 до 10 км при отсутствии осадков обычно наблюдается дымка, при ухудшении видимости до 1 км и менее - туман. В сухую погоду видимость может ухудшаться дымом, пылью или мглою.
Явления - указаны атмосферные явления, наблюдавшиеся в срок или в последний час перед сроком; фигурными скобками обозначены явления, наблюдавшиеся между сроками (за 1-3 часа до срока); квадратными скобками обозначены град или гололедные отложения с указанием их диаметра в мм.
Облачность - указаны через наклонную черту общая и нижняя облачность в баллах и высота нижней границы облаков в метрах; квадратными скобками обозначены формы облаков: Ci - перистые, Cs - перисто-слоистые, Cc - перисто-кучевые, Ac - высококучевые, As - высокослоистые, Sc - слоисто-кучевые, Ns - слоисто-дождевые, Cu - кучевые, Cb - кучево-дождевые. Подробнее классификацию облаков см. в Атласе облаков (PDF).
T - Температура воздуха - температура, измеренная на высоте 2 м над землей.
Td - Температура точки росы - температура, при понижении до которой содержащийся в воздухе водяной пар достигнет насыщения.
f - Относительная влажность воздуха - влажноcть воздуха, измеренная на высоте 2 м над землей.
Te - Эффективная температура - температура, которую ощущает одетый по сезону человек в тени. Характеристика душности погоды. При расчете учитывается влияние влажности воздуха и скорости ветра на теплоощущения человека.
Tes - Эффективная температура на солнце - температура, которую ощущает человек, с поправкой на солнечный нагрев. Характеристика знойности погоды. Зависит от высоты солнца над горизонтом, облачности и скорости ветра. Ночью, в пасмурную погоду, а также при ветре 12 м/с и более поправка равна нулю.
P - Атмосферное давление - приведенное к уровню моря атмосферное давление.
Po - Атмосферное давление - измеренное на уровне метеостанции атмосферное давление.
Tmin - Минимальная температура - минимум температуры воздуха на высоте 2 м над землей.
Tmax - Максимальная температура - максимум температуры воздуха на высоте 2 м над землей.
R - Количество осадков - Количество выпавших осадков за период времени, мм. При наведении курсора мыши на число - период времени, за который выпало указанное количество осадков.
R24 - Количество осадков - Количество выпавших осадков за 24 часа, мм.
S - Снежный покров - Высота снежного покрова, см. При наведении курсора мыши на число - состояние снежного покрова и степень покрытия местности в баллах.